sat.trackr.live / text

‹ back to catalog

STARLINK-36069

NORAD 66806 · 2025-278R

PAYLOAD ACTIVE UNKNOWN

§ Identity

Operator
Country
US
Launch date
2025-12-01
Launch site
AFETR
Launch vehicle
Mass (kg)
RCS (m²)

Purposes: comms

External: N2YO · Heavens-Above · Gunter

§ Orbital elements

Epoch: 2026-09-20T22:10:27.648768Z

Period
94.27 min
Inclination
43.0018°
Eccentricity
0.0000994
Mean motion
15.27583685 rev/d
Perigee alt
482.4 km
Apogee alt
483.7 km
Semi-major
6,861.2 km
B*
3.6097e-4
RAAN
92.1320°
Arg perigee
246.5785°
Mean anomaly
113.4963°
Rev number
4,506

§ Raw data

STARLINK-360691 66806U 25278R   26263.92393112  .00009685  00000+0  36097-3 0  99942 66806  43.0018  92.1320 0000994 246.5785 113.4963 15.27583685 45062

JSON: /api/v1/satellites/66806 · /tle

For live sub-satellite position, see the globe view (requires WebGL).

§ Visibility from observer

Set your observer location to see the next 7 days of passes ≥ 10°. The values pass through the URL so the page stays shareable.

No JS? Fill the form by hand. The geolocation button needs JavaScript.